Weather History for Orlando International, FL

Change the Weather History Date:

Wednesday, September 25, 2013

  Actual Average Record
Temperature  
Mean Temperature 79 °F 80 °F  
Max Temperature 83 °F 89 °F 98 °F (1919)
Min Temperature 74 °F 72 °F 62 °F (1914)
Degree Days  
Heating Degree Days 0 0  
Month to date heating degree days 0 0  
Since 1 July heating degree days 0 0  
Cooling Degree Days 14 15  
Month to date cooling degree days 421 409  
Year to date cooling degree days 2912 2802  
Growing Degree Days 28 (Base 50)    
Moisture  
Dew Point 72 °F    
Average Humidity 80    
Maximum Humidity 94    
Minimum Humidity 65    
Precipitation  
Precipitation T in 0.18 in 3.35 in (1908)
Month to date precipitation 5.66 5.15  
Year to date precipitation 41.25 41.76  
Sea Level Pressure  
Sea Level Pressure 29.83 in    
Wind  
Wind Speed 8 mph (WSW)    
Max Wind Speed 20 mph    
Max Gust Speed 25 mph    
Visibility 10 miles    
Events Rain    
T = Trace of Precipitation, MM = Missing Value Source: NWS Daily Summary

Daily Weather History Graph

Daily Weather History Graph

Search for Another Location

Airport:

Trip Planner

Search our weather history database for the weather conditions in past years. The results will help you decide how hot, cold, wet, or windy it might be!

Date:

Astronomy

Sep. 25, 2013 Rise Set
Actual Time 7:15 AM EDT 7:17 PM EDT
Civil Twilight 6:51 AM EDT 7:41 PM EDT
Nautical Twilight 6:24 AM EDT 8:08 PM EDT
Astronomical Twilight 5:56 AM EDT 8:36 PM EDT
Moon 11:48 PM EDT 12:54 PM EDT
Length of Visible Light 12h 49m
Length of Day
12h 02m
Waning Gibbous, 64% of the Moon is Illuminated
Sep 25
Waning Gibbous
Sep 26
Last Quarter
Oct 4
New
Oct 11
First Quarter
Oct 18
Full

Hourly Weather History & Observations

Time (EDT) Temp. Heat Index Dew Point Humidity Pressure Visibility Wind Dir Wind Speed Gust Speed Precip Events Conditions
12:53 AM 75.0 °F - 73.9 °F 96% 29.85 in 10.0 mi SW 6.9 mph - N/A   Mostly Cloudy
1:41 AM 75.2 °F - 73.4 °F 94% 29.85 in 10.0 mi SW 6.9 mph - N/A   Overcast
1:50 AM 75.2 °F - 73.4 °F 94% 29.85 in 10.0 mi WSW 8.1 mph - N/A   Overcast
1:53 AM 75.9 °F - 73.9 °F 94% 29.85 in 10.0 mi WSW 6.9 mph - N/A   Overcast
2:53 AM 77.0 °F - 75.0 °F 94% 29.83 in 10.0 mi WSW 9.2 mph - N/A   Overcast
3:19 AM 75.2 °F - 75.2 °F 100% 29.83 in 10.0 mi WSW 8.1 mph - N/A   Scattered Clouds
3:53 AM 75.9 °F - 73.9 °F 94% 29.83 in 10.0 mi West 8.1 mph - N/A   Scattered Clouds
4:53 AM 75.0 °F - 73.0 °F 94% 29.81 in 10.0 mi WSW 4.6 mph - N/A   Mostly Cloudy
5:53 AM 75.0 °F - 72.0 °F 90% 29.82 in 10.0 mi WSW 6.9 mph - 0.00 in Rain Light Rain
6:53 AM 73.9 °F - 72.0 °F 93% 29.82 in 10.0 mi West 3.5 mph - 0.00 in   Overcast
7:53 AM 75.0 °F - 72.0 °F 90% 29.85 in 10.0 mi WSW 9.2 mph - N/A   Overcast
8:53 AM 75.0 °F - 70.0 °F 84% 29.86 in 10.0 mi WSW 11.5 mph - 0.00 in Rain Light Rain
9:53 AM 75.0 °F - 71.1 °F 87% 29.84 in 10.0 mi WSW 12.7 mph - 0.00 in Rain Light Rain
10:53 AM 73.9 °F - 70.0 °F 87% 29.83 in 10.0 mi SSW 15.0 mph - 0.00 in Rain Light Rain
11:53 AM 75.9 °F - 69.1 °F 79% 29.86 in 10.0 mi WNW 12.7 mph - 0.00 in Rain Light Rain
12:53 PM 77.0 °F - 70.0 °F 79% 29.86 in 10.0 mi WNW 6.9 mph - 0.00 in   Overcast
1:53 PM 78.1 °F - 70.0 °F 76% 29.83 in 10.0 mi West 9.2 mph - N/A   Mostly Cloudy
2:53 PM 80.1 °F 83.2 °F 70.0 °F 71% 29.81 in 10.0 mi West 11.5 mph - N/A   Mostly Cloudy
3:53 PM 81.0 °F 84.4 °F 70.0 °F 69% 29.80 in 10.0 mi West 11.5 mph 19.6 mph N/A   Mostly Cloudy
4:53 PM 82.0 °F 85.9 °F 70.0 °F 67% 29.81 in 10.0 mi West 10.4 mph - N/A   Overcast
5:53 PM 81.0 °F 84.4 °F 70.0 °F 69% 29.80 in 10.0 mi West 9.2 mph - N/A   Mostly Cloudy
6:53 PM 80.1 °F 83.6 °F 71.1 °F 74% 29.81 in 10.0 mi WSW 3.5 mph - N/A   Mostly Cloudy
7:53 PM 78.1 °F - 72.0 °F 81% 29.82 in 10.0 mi WSW 4.6 mph - N/A   Mostly Cloudy
8:53 PM 75.9 °F - 73.0 °F 91% 29.83 in 10.0 mi SW 4.6 mph - N/A   Mostly Cloudy
9:00 PM 77.0 °F - 73.4 °F 89% 29.83 in 10.0 mi SW 4.6 mph - N/A   Mostly Cloudy
9:53 PM 77.0 °F - 73.0 °F 88% 29.83 in 10.0 mi SSW 4.6 mph - N/A   Mostly Cloudy
10:12 PM 75.2 °F - 73.4 °F 94% 29.84 in 10.0 mi Calm Calm - N/A   Scattered Clouds
10:53 PM 75.0 °F - 73.0 °F 94% 29.84 in 10.0 mi SE 3.5 mph - N/A   Mostly Cloudy
11:00 PM 75.2 °F - 73.4 °F 94% 29.84 in 10.0 mi SE 3.5 mph - N/A   Mostly Cloudy
11:53 PM 75.0 °F - 73.0 °F 94% 29.84 in 10.0 mi Calm Calm - N/A   Mostly Cloudy